Regional Weather Roundup
Issued by NWS

Home | Current Version | Previous Version | Text Only | Print | Product List | Glossary Off
Versions: 1 2 3 4 5 6 7 8 9 10 11 12 13 14 15 16 17 18 19 20 21 22 23 24 25 26 27 28 29 30 31 32 33 34 35 36 37 38 39 40 41 42 43 44 45 46 47 48 49 50

000
ASUS43 KLSX 231807
RWRMO

WEATHER SUMMARY FOR MISSOURI
NATIONAL WEATHER SERVICE SPRINGFIELD MO
100 PM CDT WED JUL 23 2014

NOTE: "FAIR" INDICATES FEW OR NO CLOUDS BELOW 12,000 FEET WITH NO
       SIGNIFICANT WEATHER AND/OR OBSTRUCTIONS TO VISIBILITY.
       CURRENT SKY AND/OR WEATHER CONDITIONS ARE NOT AVAILABLE FOR
       CHILLICOTHE AND FARMINGTON.

MOZ001>031-035>038-043-044-053-054-231900-
...NORTHERN AND WESTERN MISSOURI...

CITY           SKY/WX    TMP DP  RH WIND       PRES   REMARKS
KANSAS CTY INT MOSUNNY   84  65  52 NE14      30.17F
6HR MIN TEMP:  71; 6HR MAX TEMP:  84;

KANSAS C DTWN  SUNNY     87  65  47 NE14      30.15S
6HR MIN TEMP:  76; 6HR MAX TEMP:  87;

LEE`S SUMMIT   MOSUNNY   86  66  51 N14       30.17R
6HR MIN TEMP:  75; 6HR MAX TEMP:  86;

ST JOSEPH      SUNNY     83  67  58 NE9       30.18F
6HR MIN TEMP:  68; 6HR MAX TEMP:  83;

CHILLICOTHE      N/A     85  64  49 N8G18     30.17F
6HR MIN TEMP:  71; 6HR MAX TEMP:  86;

KIRKSVILLE     MOSUNNY   82  65  56 NE16      30.18R
6HR MIN TEMP:  70; 6HR MAX TEMP:  82;


$$
MOZ066>068-077>081-088>096-101>105-231900-
...SOUTHWEST MISSOURI...

CITY           SKY/WX    TMP DP  RH WIND       PRES   REMARKS
SPRINGFIELD    MOSUNNY   88  78  72 N10       30.08F HX 101
6HR MIN TEMP:  80; 6HR MAX TEMP:  89;

JOPLIN         CLOUDY    77  64  64 NW29G49   30.15R SQUALL
6HR MIN TEMP:  77; 6HR MAX TEMP:  88;


$$
MOZ032>034-039>042-045>050-055>058-069>072-231900-
...CENTRAL MISSOURI...

CITY           SKY/WX    TMP DP  RH WIND       PRES   REMARKS
COLUMBIA       MOSUNNY   87  69  54 N14       30.11S HX  91
6HR MIN TEMP:  75; 6HR MAX TEMP:  88;

JEFFERSON CITY MOSUNNY   85  68  56 N12G17    30.08S
6HR MIN TEMP:  78; 6HR MAX TEMP:  87;

ROLLA          SUNNY     90  69  50 N10       30.06F HX  94
6HR MIN TEMP:  77; 6HR MAX TEMP:  90;

SEDALIA        MOSUNNY   86  69  56 N14       30.14R HX  90
6HR MIN TEMP:  75; 6HR MAX TEMP:  86;

WHITEMAN AFB   MOSUNNY   84  61  45 N13       30.13S
OSAGE BEACH    SUNNY     90  72  55 NE10      30.08S HX  96

$$
MOZ051-052-059>065-231900-
...EAST CENTRAL MISSOURI...

CITY           SKY/WX    TMP DP  RH WIND       PRES   REMARKS
ST LOUIS INTL  CLOUDY    81  70  69 NE13      30.07F
6HR MIN TEMP:  79; 6HR MAX TEMP:  82; 6HR PCP: TRACE;

SPIRIT OF STL  PTSUNNY   82  72  71 NE14      30.06S
6HR MIN TEMP:  79; 6HR MAX TEMP:  84;

ST CHARLES     CLOUDY    80  70  71 NE13      30.07F
6HR MIN TEMP:  77; 6HR MAX TEMP:  80;


$$
MOZ072>076-082>087-097>100-106>115-231900-
...SOUTH CENTRAL AND SOUTHEAST MISSOURI...

CITY           SKY/WX    TMP DP  RH WIND       PRES   REMARKS
CAPE GIRARDEAU CLOUDY    71  68  90 S21G30    30.01F THUNDER FOG
6HR MIN TEMP:  67; 6HR MAX TEMP:  82; 6HR PCP:  1.09;

FARMINGTON     PTSUNNY   81  73  78 E12       30.05F
6HR MIN TEMP:  73; 6HR MAX TEMP:  86;

POPLAR BLUFF   MOSUNNY   87  73  62 S10       29.99F HX  94
6HR MIN TEMP:  73; 6HR MAX TEMP:  88;

WEST PLAINS    PTSUNNY   91  78  65 NE8       30.04F HX 106
6HR MIN TEMP:  73; 6HR MAX TEMP:  92;


$$


USA.gov is the U.S. government's official web portal to all federal, state and local government web resources and services.